date,harmonis reactif,bench
02/01/2009,100,100
03/01/2009,100,100
04/01/2009,100,100.0068642
05/01/2009,100.7909605,100.0127477
06/01/2009,101.5819209,100.0186313
07/01/2009,101.5819209,100.0245149
08/01/2009,101.6949153,100.0303984
09/01/2009,101.920904,100.0372626
10/01/2009,101.920904,100.0431461
11/01/2009,101.920904,100.0490297
12/01/2009,101.8079096,100.0549133
13/01/2009,101.0169492,100.0607968
14/01/2009,100.4519774,100.0666804
15/01/2009,100.2259887,100.072564
16/01/2009,99.66101695,100.0784475
17/01/2009,99.66101695,100.0843311
18/01/2009,99.66101695,100.0902147
19/01/2009,99.43502825,100.0960982
20/01/2009,99.7740113,100.1019818
21/01/2009,99.66101695,100.1078653
22/01/2009,99.20903955,100.1117877
23/01/2009,99.20903955,100.1157101
24/01/2009,99.20903955,100.1186519
25/01/2009,99.20903955,100.1225743
26/01/2009,99.0960452,100.125516
27/01/2009,98.8700565,100.1284578
28/01/2009,100,100.1323802
29/01/2009,100.7909605,100.135322
30/01/2009,100.1129944,100.1392444
31/01/2009,100.1129944,100.1421861
01/02/2009,100.1129944,100.1461085
02/02/2009,99.66101695,100.1500309
03/02/2009,99.3220339,100.1529727
04/02/2009,100,100.156895
05/02/2009,100.6779661,100.1598368
06/02/2009,101.4689266,100.1627786
07/02/2009,101.4689266,100.166701
08/02/2009,101.4689266,100.1696428
09/02/2009,101.920904,100.1725846
10/02/2009,101.2429379,100.1765069
11/02/2009,100.4519774,100.1794487
12/02/2009,100.3389831,100.1833711
13/02/2009,100.3389831,100.1863129
14/02/2009,100.3389831,100.1902352
15/02/2009,100.3389831,100.193177
16/02/2009,100.1129944,100.1970994
17/02/2009,99.88700565,100.2010218
18/02/2009,99.0960452,100.2039636
19/02/2009,98.4180791,100.2078859
20/02/2009,98.30508475,100.2108277
21/02/2009,98.30508475,100.2147501
22/02/2009,98.30508475,100.2186725
23/02/2009,97.51412429,100.2216143
24/02/2009,96.83615819,100.2255366
25/02/2009,97.06214689,100.229459
26/02/2009,96.49717514,100.2324008
27/02/2009,96.15819209,100.2363232
02/03/2009,95.36723164,100.2402455
03/03/2009,94.12429379,100.2520127
04/03/2009,93.78531073,100.2549545
05/03/2009,93.78531073,100.2588768
06/03/2009,92.65536723,100.2618186
09/03/2009,92.42937853,100.265741
10/03/2009,93.10734463,100.2765275
11/03/2009,94.12429379,100.2804499
12/03/2009,94.80225989,100.2824111
13/03/2009,95.36723164,100.2843723
16/03/2009,96.04519774,100.2873141
17/03/2009,96.15819209,100.2941782
18/03/2009,96.72316384,100.29712
19/03/2009,96.83615819,100.2990812
20/03/2009,96.94915254,100.302023
23/03/2009,98.53107345,100.3039842
24/03/2009,99.3220339,100.3118289
25/03/2009,98.98305085,100.3147707
26/03/2009,99.43502825,100.3177125
27/03/2009,99.66101695,100.3196737
30/03/2009,97.74011299,100.3226154
31/03/2009,97.74011299,100.3304602
01/04/2009,98.75706215,100.3353632
02/04/2009,100.3389831,100.3383049
03/04/2009,101.0169492,100.3402661
06/04/2009,101.0169492,100.3432079
07/04/2009,100.5649718,100.3500721
08/04/2009,100.7909605,100.3520333
09/04/2009,102.0338983,100.354975
14/04/2009,102.8248588,100.3579168
15/04/2009,103.2768362,100.3706645
16/04/2009,104.0677966,100.3736063
17/04/2009,105.0847458,100.3755675
20/04/2009,104.0677966,100.3785093
21/04/2009,103.8418079,100.3863541
22/04/2009,103.8418079,100.3892958
23/04/2009,103.9548023,100.3922376
24/04/2009,104.2937853,100.3941988
27/04/2009,104.7457627,100.39616
28/04/2009,104.2937853,100.4020436
29/04/2009,104.6327684,100.4040047
30/04/2009,105.5367232,100.4049853
04/05/2009,107.0056497,100.4069465
05/05/2009,107.9096045,100.4128301
06/05/2009,108.5875706,100.4147913
07/05/2009,108.700565,100.4157719
11/05/2009,108.5875706,100.4177331
12/05/2009,108.2485876,100.4236166
13/05/2009,107.6836158,100.4255778
14/05/2009,107.2316384,100.427539
15/05/2009,107.0056497,100.4295002
18/05/2009,107.9096045,100.4314614
19/05/2009,108.2485876,100.4383255
20/05/2009,108.5875706,100.4402867
22/05/2009,107.7966102,100.4432285
25/05/2009,107.4576271,100.4481315
26/05/2009,107.7966102,100.4579374
27/05/2009,107.9096045,100.4608792
28/05/2009,108.0225989,100.463821
29/05/2009,108.0225989,100.4657822
02/06/2009,108.700565,100.468724
03/06/2009,108.8135593,100.4765687
04/06/2009,108.8135593,100.4785299
05/06/2009,108.8135593,100.4795105
08/06/2009,108.8135593,100.4814717
09/06/2009,108.8135593,100.4863746
10/06/2009,108.8135593,100.4883358
11/06/2009,109.039548,100.490297
12/06/2009,109.039548,100.4922582
15/06/2009,109.1525424,100.4952
16/06/2009,108.4745763,100.5020642
17/06/2009,108.2485876,100.5040253
18/06/2009,107.7966102,100.5069671
19/06/2009,108.2485876,100.5089283
22/06/2009,107.5706215,100.5108895
23/06/2009,107.1186441,100.5177537
24/06/2009,107.1186441,100.5197148
25/06/2009,108.1355932,100.5236372
26/06/2009,108.1355932,100.5246178
29/06/2009,108.5875706,100.5255984
30/06/2009,108.3615819,100.5295208
01/07/2009,108.4745763,100.5305014
02/07/2009,107.9096045,100.531482
03/07/2009,107.6836158,100.5324626
06/07/2009,107.4576271,100.5334432
07/07/2009,106.779661,100.5363849
08/07/2009,106.3276836,100.5373655
09/07/2009,106.2146893,100.5383461
10/07/2009,106.2146893,100.5393267
13/07/2009,107.0056497,100.5403073
15/07/2009,108.2485876,100.5432491
16/07/2009,108.8135593,100.5452103
17/07/2009,108.9265537,100.5461909
20/07/2009,109.2655367,100.5471715
21/07/2009,109.4915254,100.5501133
22/07/2009,109.6045198,100.5510939
23/07/2009,110.1694915,100.5520744
24/07/2009,110.6214689,100.553055
27/07/2009,110.7344633,100.5540356
28/07/2009,110.5084746,100.5569774
29/07/2009,110.6214689,100.557958
30/07/2009,111.1864407,100.5589386
31/07/2009,111.5254237,100.5599192
03/08/2009,111.6384181,100.5608998
04/08/2009,111.9774011,100.5638416
05/08/2009,112.0903955,100.5648222
06/08/2009,111.8644068,100.5658028
07/08/2009,112.0903955,100.5667834
10/08/2009,112.3163842,100.567764
11/08/2009,111.6384181,100.5707057
12/08/2009,111.8644068,100.5716863
13/08/2009,112.3163842,100.5726669
14/08/2009,112.5423729,100.5736475
17/08/2009,111.8644068,100.5746281
18/08/2009,111.6384181,100.5775699
19/08/2009,111.8644068,100.5785505
21/08/2009,113.220339,100.5795311
24/08/2009,113.7853107,100.5814923
25/08/2009,113.8983051,100.5844341
26/08/2009,114.1242938,100.5854146
27/08/2009,114.1242938,100.5863952
28/08/2009,114.2372881,100.5873758
31/08/2009,113.8983051,100.5883564
01/09/2009,113.559322,100.5912982
02/09/2009,113.1073446,100.5922788
03/09/2009,112.9943503,100.5922788
04/09/2009,113.6723164,100.5932594
07/09/2009,113.8983051,100.59424
08/09/2009,113.7853107,100.5971818
09/09/2009,113.6723164,100.599143
10/09/2009,113.8983051,100.6001236
11/09/2009,114.3502825,100.6011041
14/09/2009,114.3502825,100.6020847
15/09/2009,114.5762712,100.6050265
16/09/2009,114.9152542,100.6060071
17/09/2009,115.0282486,100.6069877
18/09/2009,114.9152542,100.6079683
21/09/2009,114.5762712,100.6089489
22/09/2009,114.5762712,100.6118907
23/09/2009,114.8022599,100.6128713
24/09/2009,114.5762712,100.6138519
25/09/2009,114.3502825,100.6148325
28/09/2009,114.8022599,100.6158131
29/09/2009,115.1412429,100.6187548
30/09/2009,115.0282486,100.6197354
01/10/2009,115.0282486,100.620716
02/10/2009,114.4632768,100.6216966
05/10/2009,114.4632768,100.6226772
06/10/2009,114.5762712,100.625619
07/10/2009,115.1412429,100.6265996
08/10/2009,115.3672316,100.6275802
09/10/2009,115.3672316,100.6285608
12/10/2009,115.5932203,100.6295414
13/10/2009,115.3672316,100.6324832
14/10/2009,115.7062147,100.6344443
15/10/2009,115.5932203,100.6354249
16/10/2009,115.3672316,100.6364055
19/10/2009,115.480226,100.6373861
20/10/2009,115.5932203,100.6403279
21/10/2009,115.2542373,100.6413085
22/10/2009,114.8022599,100.6422891
23/10/2009,114.5762712,100.6432697
26/10/2009,114.0112994,100.6442503
27/10/2009,113.8983051,100.6462115
28/10/2009,113.4463277,100.6471921
29/10/2009,113.559322,100.6481727
30/10/2009,113.3333333,100.6491533
02/11/2009,113.1073446,100.6511144
03/11/2009,112.8813559,100.6540562
04/11/2009,113.1073446,100.6550368
05/11/2009,113.4463277,100.6560174
06/11/2009,113.6723164,100.656998
09/11/2009,114.3502825,100.6579786
10/11/2009,114.4632768,100.6599398
12/11/2009,114.8022599,100.661901
13/11/2009,114.6892655,100.6638622
16/11/2009,115.0282486,100.6648428
17/11/2009,115.3672316,100.6677845
18/11/2009,115.2542373,100.6687651
19/11/2009,114.8022599,100.6697457
20/11/2009,114.4632768,100.6707263
23/11/2009,114.8022599,100.6717069
24/11/2009,114.9152542,100.6746487
25/11/2009,114.9152542,100.6756293
26/11/2009,114.2372881,100.6766099
27/11/2009,114.2372881,100.6775905
30/11/2009,113.7853107,100.6785711
01/12/2009,114.4632768,100.6815129
02/12/2009,114.6892655,100.6824935
03/12/2009,114.6892655,100.683474
04/12/2009,114.8022599,100.6844546
07/12/2009,114.9152542,100.6854352
08/12/2009,114.6892655,100.6893576
09/12/2009,114.2372881,100.6903382
10/12/2009,114.3502825,100.6913188
11/12/2009,114.3502825,100.6922994
14/12/2009,114.6892655,100.69328
15/12/2009,114.6892655,100.6962218
16/12/2009,115.0282486,100.6972024
17/12/2009,115.0282486,100.698183
18/12/2009,114.9152542,100.6991636
21/12/2009,115.0282486,100.7001441
22/12/2009,115.1412429,100.7030859
23/12/2009,115.1412429,100.7040665
24/12/2009,115.1412429,100.7050471
28/12/2009,115.1412429,100.7060277
29/12/2009,115.1412429,100.7089695
30/12/2009,115.1412429,100.7099501
31/12/2009,115.0282486,100.7109307
04/01/2010,115.480226,100.7119113
05/01/2010,115.9322034,100.7168142
06/01/2010,116.0451977,100.7177948
07/01/2010,116.3841808,100.7177948
08/01/2010,116.4971751,100.7187754
11/01/2010,116.3841808,100.719756
12/01/2010,116.2711864,100.7226978
13/01/2010,116.1581921,100.7236784
14/01/2010,116.3841808,100.724659
15/01/2010,116.0451977,100.7256396
18/01/2010,116.0451977,100.7266202
19/01/2010,116.1581921,100.729562
20/01/2010,115.819209,100.7305426
21/01/2010,115.3672316,100.7315232
22/01/2010,114.8022599,100.7325038
25/01/2010,114.4632768,100.7334843
26/01/2010,114.5762712,100.7364261
27/01/2010,114.2372881,100.7374067
28/01/2010,113.7853107,100.7383873
29/01/2010,114.1242938,100.7393679
01/02/2010,114.4632768,100.7403485
02/02/2010,115.0282486,100.7432903
03/02/2010,114.8022599,100.7442709
04/02/2010,113.7853107,100.7442709
05/02/2010,112.8813559,100.7452515
08/02/2010,112.6553672,100.7462321
09/02/2010,112.8813559,100.7491738
10/02/2010,113.4463277,100.751135
11/02/2010,113.220339,100.7521156
12/02/2010,113.1073446,100.7530962
15/02/2010,113.1073446,100.7540768
16/02/2010,113.4463277,100.756038
17/02/2010,114.1242938,100.7570186
18/02/2010,114.1242938,100.7579992
19/02/2010,114.3502825,100.7589798
22/02/2010,114.3502825,100.7599604
23/02/2010,114.0112994,100.7629022
24/02/2010,114.2372881,100.7638828
25/02/2010,113.7853107,100.7648634
26/02/2010,114.2372881,100.7658439
01/03/2010,114.9152542,100.7668245
02/03/2010,115.2542373,100.7687857
03/03/2010,115.5932203,100.7697663
04/03/2010,115.819209,100.7707469
05/03/2010,116.3841808,100.7717275
08/03/2010,116.4971751,100.7727081
09/03/2010,116.6101695,100.7756499
10/03/2010,116.9491525,100.7776111
11/03/2010,116.9491525,100.7776111
12/03/2010,117.0621469,100.7785917
15/03/2010,116.7231638,100.7795723
16/03/2010,117.1751412,100.782514
17/03/2010,117.5141243,100.7834946
18/03/2010,117.5141243,100.7844752
19/03/2010,117.5141243,100.7854558
22/03/2010,117.2881356,100.7864364
23/03/2010,117.6271186,100.7893782
24/03/2010,117.5141243,100.7903588
25/03/2010,117.8531073,100.7913394
26/03/2010,117.9661017,100.79232
29/03/2010,118.079096,100.7933006
30/03/2010,118.079096,100.7962424
31/03/2010,117.740113,100.797223
01/04/2010,118.3050847,100.7982036
06/04/2010,118.6440678,100.7991841
07/04/2010,118.7570621,100.8031065
08/04/2010,118.1920904,100.8040871
09/04/2010,118.6440678,100.8050677
12/04/2010,118.8700565,100.8060483
13/04/2010,118.7570621,100.8089901
14/04/2010,118.9830508,100.8109513
15/04/2010,119.4350282,100.8119319
16/04/2010,118.4180791,100.8129125
19/04/2010,118.079096,100.8138931
20/04/2010,118.7570621,100.8168348
21/04/2010,118.5310734,100.8178154
22/04/2010,117.9661017,100.818796
23/04/2010,118.1920904,100.8197766
26/04/2010,118.6440678,100.8207572
27/04/2010,117.4011299,100.823699
28/04/2010,116.4971751,100.823699
29/04/2010,117.5141243,100.8246796
30/04/2010,117.6271186,100.8256602
03/05/2010,117.4011299,100.8266408
04/05/2010,116.3841808,100.8295826
05/05/2010,116.2711864,100.8305632
06/05/2010,116.3841808,100.8315437
07/05/2010,113.8983051,100.8325243
10/05/2010,116.4971751,100.8335049
11/05/2010,117.0621469,100.8364467
12/05/2010,117.4011299,100.8384079
14/05/2010,116.7231638,100.8393885
17/05/2010,116.6101695,100.8413497
18/05/2010,117.0621469,100.8433109
19/05/2010,116.2711864,100.8442915
20/05/2010,115.480226,100.8452721
21/05/2010,114.6892655,100.8462527
25/05/2010,114.3502825,100.8472333
26/05/2010,114.4632768,100.8511556
27/05/2010,116.1581921,100.8521362
28/05/2010,116.2711864,100.8531168
31/05/2010,116.2711864,100.8540974
01/06/2010,116.0451977,100.8560586
02/06/2010,115.9322034,100.8570392
03/06/2010,116.4971751,100.8580198
04/06/2010,116.1581921,100.8590004
07/06/2010,115.7062147,100.859981
08/06/2010,115.480226,100.8629228
09/06/2010,115.819209,100.8639034
10/06/2010,116.3841808,100.8648839
11/06/2010,117.4011299,100.8658645
14/06/2010,117.6271186,100.8658645
15/06/2010,118.1920904,100.8688063
16/06/2010,118.4180791,100.8707675
17/06/2010,118.5310734,100.8717481
18/06/2010,118.5310734,100.8727287
21/06/2010,118.7570621,100.8737093
22/06/2010,118.9830508,100.8766511
23/06/2010,118.5310734,100.8776317
24/06/2010,117.2881356,100.8786123
25/06/2010,117.0621469,100.8795929
28/06/2010,117.6271186,100.8805735
29/06/2010,115.9322034,100.8835152
30/06/2010,115.5932203,100.8844958
01/07/2010,114.1242938,100.8854764
02/07/2010,112.9943503,100.8874376
05/07/2010,112.9943503,100.8884182
06/07/2010,113.6723164,100.8923406
07/07/2010,115.480226,100.8933212
08/07/2010,116.0451977,100.8943018
09/07/2010,116.4971751,100.8952824
12/07/2010,116.8361582,100.896263
13/07/2010,116.8361582,100.9001853
15/07/2010,116.7231638,100.9021465
16/07/2010,116.0451977,100.9041077
19/07/2010,115.0282486,100.9060689
20/07/2010,115.1412429,100.9109719
21/07/2010,115.7062147,100.9119525
22/07/2010,116.4971751,100.9139136
23/07/2010,116.8361582,100.9148942
26/07/2010,117.0621469,100.9168554
27/07/2010,117.1751412,100.9207778
28/07/2010,117.1751412,100.922739
29/07/2010,117.1751412,100.9237196
30/07/2010,117.2881356,100.9247002
02/08/2010,118.079096,100.9256808
03/08/2010,118.6440678,100.9296032
04/08/2010,118.7570621,100.9305837
05/08/2010,118.8700565,100.9315643
06/08/2010,118.4180791,100.9325449
09/08/2010,119.0960452,100.9335255
10/08/2010,119.0960452,100.9364673
11/08/2010,118.3050847,100.9384285
12/08/2010,117.9661017,100.9403897
13/08/2010,117.8531073,100.9413703
16/08/2010,118.079096,100.9423509
17/08/2010,118.5310734,100.9462733
18/08/2010,118.6440678,100.9472538
19/08/2010,118.079096,100.949215
20/08/2010,116.6101695,100.9501956
23/08/2010,116.9491525,100.9511762
24/08/2010,116.6101695,100.9550986
25/08/2010,116.6101695,100.9560792
26/08/2010,116.8361582,100.9570598
27/08/2010,116.9491525,100.9580404
30/08/2010,117.1751412,100.959021
31/08/2010,117.1751412,100.9629434
01/09/2010,118.079096,100.9639239
02/09/2010,118.3050847,100.9649045
03/09/2010,118.6440678,100.9658851
06/09/2010,118.9830508,100.9668657
07/09/2010,119.2090395,100.9698075
08/09/2010,119.2090395,100.9717687
09/09/2010,119.5480226,100.9727493
10/09/2010,119.5480226,100.9737299
13/09/2010,120,100.9756911
14/09/2010,120.3389831,100.9786329
15/09/2010,119.5480226,100.980594
16/09/2010,118.8700565,100.9815746
17/09/2010,118.6440678,100.9825552
20/09/2010,119.3220339,100.9835358
21/09/2010,119.4350282,100.9874582
22/09/2010,118.8700565,100.9884388
23/09/2010,118.8700565,100.9904
24/09/2010,119.2090395,100.9913806
27/09/2010,119.5480226,100.9923612
28/09/2010,119.6610169,100.9962835
29/09/2010,119.4350282,100.9972641
30/09/2010,119.0960452,100.9982447
01/10/2010,118.7570621,101.0011865
04/10/2010,118.5310734,101.0031477
05/10/2010,119.2090395,101.0090313
06/10/2010,120,101.0100119
07/10/2010,119.7740113,101.0119731
08/10/2010,120,101.0129536
11/10/2010,120.1129944,101.0139342
12/10/2010,120.2259887,101.016876
13/10/2010,120.9039548,101.0198178
14/10/2010,120.6779661,101.021779
15/10/2010,120.4519774,101.0237402
18/10/2010,120.9039548,101.0257014
19/10/2010,120.3389831,101.0315849
20/10/2010,120.2259887,101.0345267
21/10/2010,120.2259887,101.0364879
22/10/2010,120.3389831,101.0394297
25/10/2010,120.5649718,101.0413909
26/10/2010,120.4519774,101.048255
27/10/2010,120,101.0511968
28/10/2010,120.2259887,101.053158
29/10/2010,120.3389831,101.0551192
02/11/2010,120.6779661,101.058061
03/11/2010,120.4519774,101.0659057
04/11/2010,121.1299435,101.0668863
05/11/2010,121.4689266,101.0678669
08/11/2010,121.8079096,101.0698281
09/11/2010,121.8079096,101.0727699
10/11/2010,121.6949153,101.0747311
12/11/2010,120.9039548,101.0766923
15/11/2010,120.9039548,101.0815952
16/11/2010,119.7740113,101.0874788
17/11/2010,119.7740113,101.08944
18/11/2010,120.3389831,101.0914012
19/11/2010,120.2259887,101.0933624
22/11/2010,120.3389831,101.0953235
23/11/2010,119.6610169,101.0992459
24/11/2010,119.8870056,101.1012071
25/11/2010,120.1129944,101.1021877
26/11/2010,119.6610169,101.1041489
29/11/2010,118.8700565,101.1051295
30/11/2010,118.7570621,101.1090519
01/12/2010,119.7740113,101.1100325
02/12/2010,120.6779661,101.1119936
03/12/2010,120.5649718,101.1129742
06/12/2010,121.0169492,101.1139548
07/12/2010,120.6779661,101.1178772
08/12/2010,120.9039548,101.1198384
09/12/2010,121.3559322,101.1217996
10/12/2010,121.2429379,101.1237608
13/12/2010,121.0169492,101.1247414
14/12/2010,120.7909605,101.1306249
15/12/2010,120.3389831,101.1316055
16/12/2010,120.7909605,101.1335667
17/12/2010,121.1299435,101.1345473
20/12/2010,121.920904,101.1355279
21/12/2010,122.5988701,101.1394503
22/12/2010,122.9378531,101.1404309
23/12/2010,122.9378531,101.1414115
24/12/2010,122.7118644,101.1423921
27/12/2010,122.259887,101.1433727
28/12/2010,122.259887,101.147295
29/12/2010,122.5988701,101.1482756
30/12/2010,122.0338983,101.1492562
31/12/2010,121.8079096,101.1502368
03/01/2011,122.3728814,100.5050059
04/01/2011,122.7118644,101.1590622
05/01/2011,122.7118644,101.1600428
06/01/2011,123.2768362,101.1610233
07/01/2011,123.5028249,101.1620039
10/01/2011,123.3898305,101.1629845
11/01/2011,123.5028249,101.1669069
12/01/2011,123.9548023,101.1678875
13/01/2011,123.3898305,101.1688681
14/01/2011,123.3898305,101.1698487
17/01/2011,123.3898305,101.1708293
18/01/2011,123.6158192,101.1737711
19/01/2011,122.9378531,101.1757323
20/01/2011,121.920904,101.1776934
21/01/2011,121.8079096,101.1796546
24/01/2011,122.1468927,101.1825964
25/01/2011,122.1468927,101.1894606
26/01/2011,122.3728814,101.1924024
27/01/2011,122.5988701,101.1953441
28/01/2011,122.259887,101.1982859
31/01/2011,122.0338983,101.2012277
01/02/2011,122.5988701,101.2110336
02/02/2011,122.9378531,101.214956
03/02/2011,123.1638418,101.2169172
04/02/2011,123.0508475,101.2188784
07/02/2011,123.6158192,101.219859
08/02/2011,123.6158192,101.2228008
09/02/2011,123.2768362,101.224762
10/02/2011,122.9378531,101.2277037
11/02/2011,123.3898305,101.2306455
14/02/2011,123.7288136,101.2326067
15/02/2011,123.7288136,101.2404515
16/02/2011,124.6327684,101.2424127
17/02/2011,125.1977401,101.2443738
18/02/2011,124.9717514,101.246335
21/02/2011,124.4067797,101.2482962
22/02/2011,123.9548023,101.2522186
23/02/2011,123.0508475,101.2531992
24/02/2011,122.8248588,101.2551604
25/02/2011,123.7288136,101.2571216
28/02/2011,124.180791,101.2590828
01/03/2011,123.5028249,101.2649663
02/03/2011,122.8248588,101.2659469
03/03/2011,122.7118644,101.2679081
04/03/2011,122.7118644,101.2688887
07/03/2011,122.259887,101.2698693
08/03/2011,122.4858757,101.2728111
09/03/2011,122.7118644,101.2757529
10/03/2011,122.259887,101.277714
11/03/2011,122.0338983,101.2796752
14/03/2011,121.4689266,101.2816364
15/03/2011,120.4519774,101.2885006
16/03/2011,120.2259887,101.2904618
17/03/2011,120.3389831,101.2924229
18/03/2011,120.6779661,101.2943841
21/03/2011,121.3559322,101.2963453
22/03/2011,121.3559322,101.3022289
23/03/2011,121.6949153,101.3041901
24/03/2011,122.259887,101.3061513
25/03/2011,122.259887,101.3081125
28/03/2011,122.1468927,101.3100736
29/03/2011,122.0338983,101.3149766
30/03/2011,122.3728814,101.3169378
31/03/2011,122.1468927,101.318899
01/04/2011,122.5988701,101.3208602
04/04/2011,122.5988701,101.3228214
05/04/2011,122.4858757,101.3277243
06/04/2011,122.3728814,101.3296855
07/04/2011,122.3728814,101.3306661
08/04/2011,122.1468927,101.3326273
11/04/2011,121.920904,101.3336079
12/04/2011,121.2429379,101.3385109
13/04/2011,121.3559322,101.3404721
14/04/2011,121.2429379,101.3443944
15/04/2011,121.5819209,101.3473362
18/04/2011,121.2429379,101.350278
19/04/2011,121.2429379,101.3600839
20/04/2011,121.6949153,101.3630257
21/04/2011,121.920904,101.3669481
26/04/2011,122.5988701,101.3708705
27/04/2011,122.8248588,101.3904824
28/04/2011,123.2768362,101.3032095
29/04/2011,123.6158192,101.8395944
02/05/2011,123.5028249,101.3600839
03/05/2011,123.1638418,101.1365085
04/05/2011,122.0338983,101.18848
05/05/2011,122.259887,100.5354043
06/05/2011,123.2768362,101.553261
09/05/2011,123.7288136,102.3642122
10/05/2011,124.4067797,103.3977584
11/05/2011,124.2937853,103.4085449
12/05/2011,124.2937853,103.5036625
13/05/2011,123.9548023,103.7782289
16/05/2011,123.3898305,103.4624776
17/05/2011,122.9378531,103.096716
18/05/2011,123.2768362,102.9966954
19/05/2011,123.3898305,102.9172673
20/05/2011,123.3898305,103.0094431
23/05/2011,122.4858757,103.3781465
24/05/2011,122.259887,103.1584934
25/05/2011,122.8248588,102.7613528
26/05/2011,123.1638418,103.2614558
27/05/2011,123.7288136,103.5281774
30/05/2011,123.5028249,103.2526304
31/05/2011,124.4067797,103.1751635
01/06/2011,123.5028249,103.1290756
03/06/2011,122.0338983,102.3887271
06/06/2011,121.4689266,101.0766923
07/06/2011,120.7909605,100.5903176
08/06/2011,120.6779661,100.1657204
09/06/2011,121.4689266,100.2225948
10/06/2011,121.6949153,100.9707881
14/06/2011,121.3559322,100.9972641
15/06/2011,121.3559322,100.8658645
16/06/2011,121.8079096,101.0747311
17/06/2011,121.2429379,101.5709117
20/06/2011,121.2429379,100.9727493
21/06/2011,121.920904,100.8619422
22/06/2011,121.6949153,101.3208602
23/06/2011,121.920904,100.8825346
24/06/2011,121.5819209,101.5993489
27/06/2011,121.2429379,101.3659675
28/06/2011,121.1299435,100.7658439
29/06/2011,121.8079096,100.7364261
30/06/2011,122.1468927,101.2139754
01/07/2011,123.0508475,101.3375303
04/07/2011,123.2768362,101.8317497
05/07/2011,123.5028249,101.8523421
06/07/2011,123.7288136,102.0298297
07/07/2011,123.8418079,102.6789829
08/07/2011,124.180791,102.5917101
11/07/2011,123.7288136,103.0535699
12/07/2011,123.2768362,103.5644593
13/07/2011,123.0508475,103.48307
15/07/2011,122.5988701,103.1457457
18/07/2011,121.5819209,102.9800253
19/07/2011,122.0338983,102.7084007
20/07/2011,122.3728814,102.659371
21/07/2011,122.0338983,103.0094431
22/07/2011,123.6158192,102.7956736
25/07/2011,123.1638418,103.2075231
26/07/2011,122.7118644,103.0712205
27/07/2011,121.6949153,102.4240285
28/07/2011,121.920904,102.4240285
29/07/2011,121.5819209,102.4887477
01/08/2011,121.2429379,102.1210249
02/08/2011,120,102.7280126
03/08/2011,119.0960452,101.6091548
04/08/2011,117.4011299,100.9050883
05/08/2011,115.5932203,99.24984556
08/08/2011,112.3163842,98.47125389
09/08/2011,113.7853107,96.68068916
10/08/2011,110.8474576,97.65736083